Location: Castillon
(43.0896°N, 0.2156°E)
Time: 20:04:52
(UTC+00:00)

Cosmos 2278 Rocket - Pass Details

Date: 16 June 2021
Orbit: 840 x 847 km, 71.0° (Epoch: 02 August)

Event Time Altitude Azimuth Distance (km) Brightness Sun altitude
Rises 22:07:11 0° 343° (NNW) 3,409 6.9 -18.6°
Reaches altitude 10° 22:10:01 10° 355° (N) 2,472 5.7 -18.9°
Maximum altitude 22:14:48 27° 53° (NE) 1,564 3.7 -19.3°
Enters shadow 22:18:06 16° 100° (E) 2,047 3.9 -19.5°
